Wind_Speed
18 18 18 18 18 18 18 18 18 18 17 17 18 18 19 19 19 19 19 20 20 20 19 19 19 19 19 19 18 18 19 20 18 20 24 18 13 15 14 15 12 11 17 16 14 18 19 21 21 20 18 16 16 15 13 13 11 9 6 5 5 2 2 8 2 3 3 6 6 7 5 5 8 6 6 6 8 10 9 10 10 8 9 15 23 30 31 31
18 18 19 19 19 19 19 20 20 20 19 19 19 19 20 20 20 19 19 20 20 20 19 19 18 17 18 18 17 17 19 20 20 25 23 9 8 12 8 13 16 13 14 18 20 22 22 22 23 21 18 16 15 15 13 12 12 10 6 6 4 2 9 11 1 5 4 3 3 7 6 3 7 6 4 5 8 9 9 11 11 12 15 20 27 31 32 31
19 19 19 20 20 20 21 21 22 22 21 21 21 21 21 21 21 20 19 19 20 20 19 19 18 16 17 16 15 16 17 18 22 28 24 14 16 16 11 12 15 15 15 18 22 23 22 21 22 21 18 16 15 15 14 11 11 11 8 6 2 6 12 6 4 5 7 5 2 8 6 4 7 7 3 4 8 8 7 9 11 15 18 23 28 30 32 31
20 20 21 21 21 22 22 22 23 23 23 22 22 22 22 23 22 21 19 19 20 20 19 18 17 15 15 14 14 12 12 15 19 22 20 19 20 18 18 16 15 15 14 18 21 21 20 20 21 21 18 15 15 16 13 12 10 9 9 6 4 10 6 3 4 5 7 6 4 7 6 6 8 7 4 4 7 6 8 11 11 17 21 25 29 30 31 30
21 21 21 22 22 22 22 23 23 24 24 23 23 23 24 23 23 21 20 19 19 20 19 18 16 14 13 13 12 8 6 8 6 9 13 16 14 14 18 19 18 16 16 19 21 20 20 21 22 22 18 14 14 14 13 16 13 7 10 10 8 9 4 4 3 5 5 5 3 4 3 6 8 7 5 5 4 2 7 13 14 18 23 27 30 30 31 30
22 22 22 22 22 22 22 23 24 24 24 24 24 24 24 24 23 22 21 19 18 19 18 17 15 12 11 11 10 6 7 6 3 2 7 9 9 9 11 15 20 19 19 21 21 21 22 22 22 21 18 14 14 13 13 18 15 8 10 11 10 9 2 4 8 2 3 6 2 1 2 5 6 7 7 5 3 5 6 12 15 19 23 27 30 30 30 31
23 23 22 22 22 22 22 23 24 24 24 24 24 24 25 24 23 22 21 20 18 18 17 16 14 11 10 9 10 9 15 18 8 4 6 9 12 8 6 9 19 23 23 24 23 23 23 23 24 22 17 13 14 15 14 17 17 12 10 10 9 8 5 6 10 7 5 6 4 2 0 4 5 5 8 8 6 8 7 10 15 19 23 25 28 29 30 31
24 24 24 23 23 23 23 24 24 25 24 24 24 25 25 24 23 22 21 20 18 17 16 15 12 10 9 8 9 11 21 27 19 13 14 11 11 3 0 5 18 26 25 25 25 24 24 25 25 22 16 13 15 15 16 15 15 15 12 10 8 7 9 11 12 9 9 8 6 5 5 5 5 3 5 9 9 9 8 10 16 19 21 23 26 28 28 29
26 26 26 25 25 25 25 25 25 25 25 24 24 25 25 24 22 21 20 19 18 16 14 13 11 10 10 9 10 12 19 20 16 14 16 16 15 14 10 5 14 25 25 25 26 24 24 24 26 23 16 15 17 15 16 14 11 14 15 14 10 9 10 11 12 12 12 10 7 8 8 7 7 5 5 9 11 12 11 12 18 20 20 22 24 27 28 29
27 27 27 27 27 27 27 26 26 26 25 25 25 25 25 24 22 21 20 17 16 15 13 11 10 11 11 10 10 11 13 10 9 12 14 15 16 20 17 11 13 23 26 25 26 26 25 23 24 24 18 16 17 15 16 14 11 11 13 16 14 12 12 12 14 14 14 12 11 10 8 8 7 7 7 10 13 13 13 14 18 21 21 21 23 26 28 29
27 28 28 28 28 29 29 28 27 27 26 25 25 25 25 24 21 20 19 16 15 13 11 10 10 12 11 11 14 12 7 6 7 9 12 14 17 21 19 16 17 22 26 25 26 27 26 23 21 21 17 14 15 15 16 16 14 11 10 13 15 15 14 15 15 16 15 12 13 13 10 9 9 8 6 10 16 15 14 16 18 20 20 21 23 26 27 28
28 28 29 29 29 30 30 29 28 27 27 26 25 25 25 23 21 19 18 16 14 11 10 9 9 12 10 13 24 21 9 6 5 6 9 12 18 20 17 17 21 23 25 24 25 25 25 24 22 21 17 12 13 12 12 18 19 16 13 11 12 14 15 17 17 17 16 11 13 12 10 10 11 10 7 10 15 15 15 16 17 18 18 19 22 26 27 27
28 29 29 30 30 30 31 30 29 29 27 26 25 25 25 22 20 19 18 15 13 11 9 8 10 11 11 15 23 19 14 12 9 7 8 11 15 17 16 19 21 22 23 23 22 23 25 24 23 23 20 14 13 9 4 13 19 16 14 11 10 12 12 16 18 18 17 13 13 11 7 9 11 13 11 11 15 14 15 17 16 16 17 18 20 23 27 27
29 29 30 30 30 31 31 31 30 30 28 26 25 24 24 22 21 20 18 16 13 11 9 8 8 8 12 18 15 10 14 17 16 14 10 11 15 16 18 19 20 21 22 21 20 21 23 23 22 23 23 19 16 11 5 9 15 13 13 11 9 10 10 15 18 18 17 14 16 13 7 7 10 15 15 14 15 14 15 18 17 18 19 18 19 21 25 28
29 30 30 30 30 30 31 31 31 30 29 27 25 24 22 21 21 20 17 16 13 10 8 6 5 9 11 20 16 13 16 16 18 20 14 13 17 18 19 20 20 21 20 21 19 19 20 22 23 20 21 21 18 14 9 9 10 10 12 11 10 10 9 14 18 19 17 15 18 15 7 6 6 11 15 16 15 13 14 16 17 19 20 19 19 19 21 26
29 30 31 31 31 30 31 31 31 31 30 27 25 22 21 20 20 18 17 15 12 9 4 3 2 8 10 12 10 14 16 17 19 19 17 16 17 18 19 19 19 20 19 19 17 17 19 21 22 20 19 18 15 12 8 9 10 11 11 11 12 13 11 11 14 18 18 14 17 16 10 7 6 9 15 17 16 14 13 14 16 18 20 22 21 19 19 22
30 31 31 32 31 31 31 31 31 31 29 27 24 22 20 18 17 16 15 12 9 6 2 1 2 8 12 7 7 12 16 18 16 18 19 18 18 17 18 19 20 20 18 17 15 15 19 21 18 16 16 14 12 11 10 11 12 10 11 11 13 14 12 10 10 15 18 16 16 17 13 10 9 14 19 18 16 15 13 12 15 17 19 23 23 21 20 21
30 31 31 32 32 31 31 31 32 30 29 27 23 20 17 16 18 16 10 8 6 4 4 6 6 7 11 14 12 8 13 18 16 18 20 19 18 17 19 20 19 20 18 16 16 17 18 19 15 11 13 13 13 13 13 13 13 13 13 11 12 14 14 13 12 12 17 18 17 16 14 13 12 13 16 18 16 14 12 11 13 15 17 22 23 22 22 24
30 31 32 32 31 31 31 32 31 29 29 27 22 18 14 16 18 10 2 4 4 5 5 7 15 8 5 9 15 6 5 14 17 19 22 22 18 16 20 20 19 22 19 14 16 20 17 14 14 12 12 15 16 16 16 16 16 16 16 13 13 14 13 13 11 11 14 16 17 16 14 13 15 14 12 15 17 15 14 13 12 14 16 19 21 22 23 25
30 31 32 32 32 30 30 31 29 28 27 25 24 19 12 14 12 3 4 11 16 17 19 13 19 20 13 5 11 8 5 11 17 20 24 25 20 18 21 21 20 21 17 13 14 20 18 12 14 15 16 18 20 20 19 19 19 17 15 15 15 15 13 12 12 12 12 11 14 17 16 15 15 15 14 15 16 14 14 14 13 13 16 20 22 23 24 23
31 31 31 32 32 30 29 29 26 25 23 21 23 17 10 14 10 7 17 23 22 23 29 29 24 27 26 16 9 8 9 12 17 21 24 27 24 19 21 23 19 15 16 17 15 18 18 14 16 20 19 20 21 21 20 20 21 19 15 13 14 14 14 14 16 17 14 9 11 16 17 18 16 14 16 17 16 15 16 15 14 14 16 21 24 24 22 21
31 31 31 31 31 30 29 26 23 25 23 18 17 14 11 13 10 11 17 21 27 27 27 30 29 29 31 27 17 10 11 14 18 22 24 29 28 21 21 22 17 13 17 18 14 14 15 15 20 22 20 20 19 20 21 21 20 18 14 12 12 12 12 15 17 18 15 9 10 15 15 15 17 16 16 16 14 15 19 18 16 15 15 19 23 23 22 22
29 30 30 30 30 30 27 23 22 24 21 13 12 15 14 14 12 13 15 16 26 30 25 28 31 31 31 30 25 18 16 16 18 24 28 31 31 28 22 19 18 17 18 18 16 14 13 15 20 21 19 21 20 20 22 20 17 15 14 11 12 12 12 12 14 16 15 10 10 14 13 12 15 16 15 16 17 17 19 19 18 16 15 17 21 22 22 24
29 28 28 29 28 28 25 20 19 21 16 10 9 14 16 16 14 15 16 14 17 22 25 29 30 30 32 28 25 25 23 20 19 23 31 33 32 29 23 20 20 17 17 22 22 18 15 13 17 21 20 21 21 20 20 16 13 15 17 14 13 15 15 12 12 15 15 14 13 13 11 11 14 16 15 15 19 19 18 20 19 18 16 16 20 23 25 27
29 27 27 27 26 28 23 13 13 19 15 8 10 16 17 16 15 14 14 11 11 13 16 22 24 26 29 23 22 27 24 22 22 23 30 35 33 26 21 21 19 16 20 26 23 18 17 14 16 21 21 21 21 19 19 16 12 15 19 20 17 17 18 15 15 14 11 11 13 13 11 10 14 18 16 14 16 18 18 19 19 19 18 17 20 25 27 28
30 28 27 26 24 27 22 10 13 20 14 9 15 19 17 16 16 14 9 7 9 9 8 13 17 16 20 22 22 24 19 21 27 25 28 33 34 27 19 18 16 17 21 21 16 11 14 17 16 18 21 22 21 17 19 19 12 11 16 21 22 21 19 17 17 15 10 8 10 13 12 9 11 16 17 16 17 20 18 16 17 18 18 18 20 23 25 27
31 29 29 27 23 23 21 15 18 18 12 13 20 20 17 15 15 12 5 7 7 7 10 10 11 11 15 21 25 22 9 13 26 29 29 32 34 30 21 16 15 16 17 13 12 10 15 21 18 17 20 20 17 15 18 19 13 10 13 17 21 22 22 19 17 14 10 9 10 14 15 11 10 13 16 18 20 21 17 14 15 18 19 19 20 21 23 26
30 29 29 28 22 18 18 18 16 14 12 17 22 20 17 16 14 10 5 7 2 9 9 6 6 7 10 17 27 24 8 8 20 28 33 32 34 31 21 20 18 17 19 15 12 13 17 22 20 19 18 15 15 16 18 19 15 12 12 14 16 18 21 21 16 12 11 10 10 14 15 12 10 10 12 16 19 19 16 15 15 17 19 19 19 21 22 25
30 29 28 27 22 16 16 17 13 12 15 19 21 19 17 16 12 6 6 6 2 5 5 6 8 8 10 14 24 27 16 10 12 22 35 32 32 30 19 21 21 17 22 20 15 14 15 20 22 19 16 13 16 17 18 18 15 13 14 15 13 12 14 16 15 12 12 13 12 15 16 12 9 9 11 14 16 16 14 15 16 17 19 19 19 22 23 24
29 28 27 26 22 15 13 12 9 12 17 20 19 19 18 14 8 7 8 6 4 2 5 8 8 9 13 12 17 22 20 15 7 18 34 30 32 31 21 23 23 15 18 21 19 17 15 19 21 17 15 14 16 16 17 19 17 14 14 13 9 8 8 9 11 11 11 13 15 18 19 15 11 10 11 13 14 15 13 13 15 17 20 22 23 25 24 24
27 26 26 24 19 14 10 10 11 15 19 19 20 20 16 9 6 9 7 3 3 2 4 6 6 8 15 13 12 16 19 16 8 15 24 22 24 26 19 18 18 13 14 16 18 19 19 17 15 16 18 17 15 15 16 18 18 14 13 10 8 7 8 7 8 10 12 13 13 18 20 18 14 10 10 12 15 18 16 15 17 18 21 25 26 27 25 24
25 24 23 20 16 12 10 12 16 19 20 20 20 17 11 7 8 10 7 4 3 4 6 3 4 2 9 11 11 15 17 15 12 15 18 17 17 19 18 15 13 13 14 14 15 17 18 17 14 16 21 21 16 13 13 14 15 14 12 11 10 8 8 9 10 10 12 11 11 15 18 17 15 11 12 14 15 17 17 16 19 21 26 29 29 27 24 23
24 22 20 16 13 10 10 15 19 19 19 19 18 13 8 8 9 9 10 9 3 9 11 11 12 13 11 10 11 13 16 16 15 16 19 19 16 18 22 22 19 16 13 13 14 14 14 16 19 17 16 21 19 12 11 12 13 14 13 11 10 9 9 10 10 10 11 11 12 16 15 14 14 12 15 19 17 16 17 20 22 26 30 30 29 25 22 23
23 20 18 14 11 9 12 17 18 18 18 17 14 10 9 10 9 10 13 8 9 12 13 15 15 15 13 11 12 12 14 15 18 17 17 18 16 16 20 23 26 20 12 12 12 13 14 14 19 19 13 19 22 16 13 12 13 14 13 11 11 9 9 9 9 9 10 9 13 16 13 12 11 8 12 17 19 19 19 20 23 25 26 26 27 26 22 23
21 17 15 10 8 10 14 17 17 16 16 15 11 8 10 9 8 11 9 7 11 13 15 19 16 14 12 11 14 16 12 11 18 19 14 17 16 15 17 20 26 22 14 13 10 12 18 14 16 22 17 19 23 20 17 14 12 13 12 12 12 11 9 7 8 10 9 8 10 12 10 9 8 7 8 10 15 20 20 19 20 21 22 22 25 28 26 24
19 15 11 6 7 13 16 17 16 14 14 13 9 7 9 8 8 8 5 13 13 14 18 17 12 11 10 9 12 15 11 8 15 17 13 16 17 18 17 16 22 25 17 13 9 10 15 12 15 23 22 21 22 21 20 16 10 10 13 13 12 13 11 8 8 9 8 9 8 9 10 8 6 8 9 9 11 16 19 20 18 19 22 22 23 27 28 26
19 16 12 5 8 17 18 16 15 13 14 11 8 9 9 9 12 10 9 14 15 15 15 11 7 8 10 9 10 13 12 9 12 13 12 15 15 17 20 18 22 28 24 17 10 9 11 10 15 24 24 22 23 23 23 20 14 9 12 14 12 12 12 8 7 7 7 8 7 9 12 11 8 7 9 14 14 14 18 21 19 20 22 23 23 25 28 28
21 19 13 4 10 20 19 15 13 14 13 9 9 11 10 10 11 13 13 14 15 13 11 9 8 10 12 9 6 6 9 10 11 10 10 13 9 5 11 15 15 17 25 25 14 9 10 9 13 22 23 20 20 21 19 20 21 14 10 13 12 11 11 9 8 8 9 8 7 10 11 10 9 8 8 13 16 14 15 17 19 20 21 22 25 26 29 29
20 19 9 9 15 20 17 14 14 13 10 7 8 8 8 9 11 14 16 14 13 11 11 12 11 11 13 11 10 8 4 5 6 8 10 12 7 4 5 3 4 2 9 18 13 9 10 9 9 18 23 19 15 15 14 16 20 17 12 12 12 10 10 10 8 7 8 7 7 9 11 9 9 10 9 10 13 15 14 13 15 17 18 21 24 25 27 29
18 13 7 16 20 19 17 15 12 10 6 5 7 7 9 12 13 16 17 15 13 9 10 13 13 12 13 13 14 11 7 8 10 9 8 4 4 6 10 8 3 2 3 8 11 12 11 9 9 13 20 18 13 14 16 16 17 16 13 12 12 10 9 9 10 9 8 7 6 7 8 7 5 7 9 9 11 13 14 13 12 13 16 21 22 22 25 26
16 10 9 19 22 19 18 13 6 5 4 4 6 8 10 12 12 16 17 16 14 12 13 16 14 14 14 12 13 12 10 10 10 10 9 2 8 5 7 11 8 5 5 6 11 13 9 8 10 10 14 15 15 17 20 20 19 17 14 12 13 12 10 10 10 10 9 8 6 6 6 3 4 4 4 7 9 11 12 13 13 13 17 20 21 22 24 25
14 9 12 19 20 19 18 9 4 5 4 4 7 8 9 11 11 12 14 14 13 11 13 15 14 14 14 12 12 12 11 10 9 11 9 2 9 8 9 11 11 8 6 8 14 15 7 4 10 11 12 14 17 19 21 22 22 19 16 14 13 12 12 10 9 9 10 9 8 7 6 1 7 5 5 4 5 8 11 10 11 13 17 18 20 21 23 25
13 12 13 15 17 18 14 6 4 5 4 7 10 9 8 9 10 10 11 11 9 8 9 11 12 12 13 14 14 13 11 11 13 14 8 4 7 7 9 12 13 8 5 7 12 14 5 4 9 10 10 13 16 19 20 21 21 18 16 16 14 14 14 11 8 7 8 10 10 7 6 4 7 8 7 6 1 6 11 11 10 12 14 15 16 17 19 22
16 15 12 13 15 15 9 5 6 6 6 10 11 10 9 9 8 10 11 10 8 8 8 9 11 12 14 16 16 14 11 10 13 13 9 5 3 7 8 11 12 8 3 3 3 4 5 8 10 8 10 12 13 15 16 18 18 13 14 18 18 19 18 14 10 8 7 10 12 9 7 5 8 8 5 4 6 7 10 13 13 11 11 13 15 14 13 16
16 12 10 14 16 10 6 7 7 6 8 10 11 11 10 8 7 10 12 10 7 8 9 8 10 13 14 15 15 14 14 12 11 9 8 8 3 4 5 9 10 9 8 12 13 8 5 10 10 9 11 12 11 12 12 15 15 12 16 22 23 24 22 16 10 8 8 9 10 9 6 5 9 8 7 7 7 6 6 10 13 12 10 9 10 11 12 12
14 9 9 14 15 10 7 9 9 7 8 9 9 10 10 9 8 9 10 9 7 10 10 7 9 12 11 13 14 13 14 16 13 9 7 9 7 3 4 7 7 8 13 17 13 8 5 8 12 15 14 7 2 3 6 12 16 16 19 23 24 25 23 17 11 10 9 7 8 8 5 7 10 10 7 7 8 6 5 5 9 12 11 8 9 9 9 10
12 7 9 11 10 9 9 11 10 8 9 9 7 8 11 11 8 7 8 8 9 12 9 3 5 9 9 12 13 12 14 16 15 12 10 9 10 8 3 5 5 8 14 14 6 4 5 8 13 19 20 11 3 7 7 9 17 20 22 24 23 25 25 21 15 12 10 8 8 9 8 5 9 11 8 7 8 7 5 4 7 11 11 10 9 5 7 11
10 10 12 10 8 8 8 10 11 10 11 11 7 7 9 10 9 8 8 10 10 10 6 3 5 8 10 11 10 10 13 14 10 10 11 9 12 11 5 4 1 6 10 7 2 4 6 9 13 18 21 17 8 5 9 7 13 14 18 24 25 25 26 25 20 16 13 9 7 10 13 11 6 10 11 9 7 5 5 5 5 9 10 10 9 4 8 15
11 11 13 11 11 12 12 13 13 12 10 8 6 6 7 9 11 9 7 10 8 6 5 7 8 10 11 9 8 8 10 11 8 10 13 12 12 12 5 2 2 5 8 5 2 4 4 6 8 14 19 17 12 8 9 9 9 8 13 21 24 24 25 24 22 20 17 13 9 9 13 14 10 9 11 11 7 4 4 4 1 3 7 8 7 4 6 13
12 11 12 13 14 14 14 13 11 10 8 6 5 5 6 9 11 9 8 10 9 4 5 9 10 11 12 10 8 9 9 10 10 10 12 12 11 10 7 7 8 8 8 5 3 4 3 2 4 7 12 15 14 11 9 9 7 8 11 14 17 22 24 23 22 20 17 15 14 10 10 10 9 8 6 4 1 3 4 6 5 4 4 1 1 4 5 7
12 12 13 13 12 12 12 12 9 8 6 4 4 5 8 10 11 10 9 9 10 7 5 9 11 10 10 10 10 9 9 10 12 12 14 13 12 11 8 9 11 10 6 5 5 4 5 3 2 5 8 10 12 13 11 9 9 12 13 11 12 17 18 17 17 18 16 15 16 14 10 7 6 7 7 3 1 4 6 5 5 5 6 5 6 7 6 7
13 14 12 10 10 11 11 10 8 8 5 4 5 7 9 11 11 11 8 5 8 8 6 7 11 9 8 10 11 10 10 12 14 16 17 18 18 18 14 13 13 10 6 6 7 5 4 4 4 7 7 9 14 16 13 9 10 12 13 12 13 13 11 12 12 12 12 11 11 10 7 4 3 4 6 5 4 6 6 6 8 8 7 8 8 9 9 9
Wind_Direction
351 350 348 345 343 340 336 333 329 326 322 319 314 310 307 303 302 301 302 300 298 297 294 293 291 290 288 288 289 289 290 287 289 284 274 272 266 256 243 232 232 227 220 210 194 189 191 197 198 196 201 207 217 230 226 223 237 245 251 253 263 79 180 265 338 70 68 91 108 135 159 121 119 109 103 143 131 127 131 118 120 104 95 117 131 141 147 151
350 348 346 343 341 338 336 332 329 326 323 321 317 313 309 305 303 301 303 302 301 298 295 294 292 292 291 288 289 291 290 290 294 279 263 246 239 243 231 227 224 220 215 201 194 192 192 195 194 193 199 208 213 222 223 213 223 237 250 252 251 125 215 237 90 58 44 50 97 134 166 141 119 116 140 173 133 135 141 129 133 114 107 122 134 142 148 153
348 346 344 342 340 338 335 332 329 326 323 322 318 315 311 307 305 304 304 302 303 300 297 294 292 294 291 290 291 291 295 300 294 275 260 243 243 242 231 227 220 219 212 197 195 194 195 194 190 192 200 211 211 214 218 207 215 229 243 257 252 222 220 210 68 48 38 17 49 118 147 153 125 131 170 169 135 148 151 141 146 131 127 135 142 147 150 156
347 345 344 342 340 337 335 331 328 325 324 323 319 316 311 309 307 306 305 303 302 300 299 295 292 293 291 292 290 291 312 308 284 264 258 254 247 240 232 223 216 217 203 193 196 196 198 195 191 194 203 216 211 213 217 208 216 225 235 238 231 252 251 89 67 44 31 7 37 96 141 158 134 142 169 161 144 158 161 156 155 146 145 148 150 153 155 159
348 347 346 344 342 339 335 331 328 325 324 322 320 316 311 310 308 308 306 303 301 298 299 296 294 293 288 289 285 290 313 304 276 231 240 248 239 228 226 220 213 208 192 192 197 196 199 195 193 198 208 221 209 210 219 212 219 238 247 247 242 259 328 358 327 51 13 338 52 113 153 143 137 154 175 183 160 131 153 155 156 153 153 156 156 157 159 163
351 350 348 347 344 341 336 332 329 326 325 323 320 315 311 310 308 309 307 304 300 296 296 294 295 292 282 281 277 258 237 258 53 111 231 213 185 175 191 208 205 196 190 194 196 195 199 196 194 201 210 223 216 211 218 212 217 237 245 247 254 261 346 323 292 331 327 316 340 81 75 123 149 172 174 201 177 94 114 142 149 154 155 158 159 161 164 166
352 351 349 347 344 341 338 333 331 328 327 325 321 316 311 310 309 310 308 304 299 295 294 292 294 287 275 269 266 241 233 247 252 286 274 181 156 134 132 186 188 182 190 196 197 196 198 197 196 204 210 219 222 216 218 215 215 231 248 239 237 245 205 219 255 262 268 282 290 315 318 177 189 182 162 192 183 114 110 131 139 148 154 161 162 165 168 169
352 350 348 346 343 340 337 334 331 329 329 327 324 319 314 311 310 311 309 303 297 294 292 289 290 279 265 249 251 243 238 245 245 259 272 219 186 203 111 178 176 178 194 200 198 198 198 201 200 206 213 218 224 217 218 222 217 224 246 251 233 228 217 218 235 247 252 261 266 248 242 214 200 215 170 183 179 141 139 139 139 147 156 165 168 169 171 172
352 351 349 346 343 340 337 334 331 329 329 328 325 322 318 314 313 313 309 302 297 295 291 288 282 266 255 236 235 249 247 247 243 245 256 240 232 251 255 228 183 181 198 204 200 202 201 204 204 208 219 223 227 224 218 224 225 222 233 246 243 231 224 227 234 237 245 250 247 236 234 222 199 214 212 188 177 159 162 158 150 155 163 170 174 174 173 174
353 352 349 347 345 342 338 335 332 329 328 327 325 324 321 319 317 314 309 304 299 296 292 284 273 258 247 230 228 247 252 241 226 224 233 236 237 249 248 235 205 190 199 206 204 206 205 207 207 212 227 232 233 231 220 221 227 228 236 243 245 243 235 229 232 234 240 240 239 241 236 226 201 201 204 179 176 169 168 168 158 160 168 173 177 178 176 177
354 353 351 349 347 344 340 336 333 329 327 327 326 324 323 322 320 316 312 308 301 298 293 280 264 255 240 223 226 233 241 223 208 213 222 217 216 240 244 221 210 199 200 207 207 208 208 211 210 213 227 235 240 237 226 225 229 233 239 245 241 241 241 234 234 234 236 236 231 238 243 231 208 212 204 165 172 174 172 168 163 167 171 175 178 179 179 179
355 354 353 351 350 347 342 337 334 330 328 327 325 323 323 323 322 318 314 310 304 301 292 280 260 246 225 224 234 231 227 223 219 217 218 207 204 228 236 210 207 202 201 208 209 210 211 213 212 216 221 226 238 241 232 226 229 236 237 246 244 238 239 232 231 230 231 232 221 228 242 229 213 211 196 169 170 171 177 171 169 173 172 181 183 179 180 180
355 354 354 353 352 349 344 340 337 332 330 328 326 324 323 323 322 318 315 311 308 303 292 284 263 233 211 233 247 244 235 231 241 241 217 208 205 214 216 205 207 206 205 209 210 211 212 213 215 220 223 223 228 229 250 229 223 232 235 242 248 242 238 227 224 225 226 225 214 222 234 221 210 192 183 182 170 169 182 169 169 181 177 187 190 182 181 180
353 353 353 352 352 350 345 342 339 335 332 329 327 325 322 323 321 317 313 308 307 304 298 285 257 208 211 243 258 258 237 231 237 238 222 211 207 205 204 202 206 207 209 214 214 212 212 214 216 224 226 228 237 230 231 231 219 223 232 232 237 242 234 220 216 217 222 215 207 221 237 223 202 176 181 193 173 174 188 170 172 186 180 185 191 190 186 181
352 351 350 351 352 350 345 343 341 337 334 331 330 326 323 324 320 316 312 308 309 309 304 290 230 187 234 264 263 251 239 230 228 226 220 211 203 198 197 197 203 204 207 213 216 214 211 213 215 223 224 224 241 242 223 224 220 216 226 227 225 235 238 219 208 208 217 207 200 215 233 228 190 157 183 193 177 183 195 180 179 184 178 180 188 196 197 186
350 348 348 349 350 350 346 344 342 339 336 333 331 328 326 325 321 317 314 309 307 307 305 312 237 206 256 282 255 238 230 222 223 217 212 207 200 196 193 193 197 199 203 208 213 213 208 211 215 222 224 218 228 238 228 222 220 213 221 231 224 222 232 222 201 202 214 207 199 209 227 227 162 157 200 190 175 193 197 189 188 184 178 176 182 191 203 198
349 347 347 348 349 350 346 345 344 339 336 336 336 334 330 329 327 320 314 307 297 293 267 250 255 235 249 250 228 233 219 212 214 205 202 200 197 195 188 187 190 190 194 197 206 210 202 206 213 218 223 219 215 220 223 219 214 209 213 228 233 227 226 217 196 194 205 211 208 206 219 231 184 177 199 185 179 198 198 198 195 188 177 170 178 188 199 206
348 346 346 346 348 349 347 346 345 342 342 342 342 341 337 338 338 330 317 315 312 283 249 220 207 233 245 226 224 239 215 206 199 193 193 190 192 192 183 183 181 180 184 188 199 203 196 201 209 212 216 217 212 209 216 218 212 211 210 217 230 233 230 218 203 189 197 209 214 209 211 223 216 196 189 180 190 205 202 210 202 191 181 168 176 189 196 206
349 346 346 346 348 350 348 347 346 346 348 347 350 351 347 344 335 328 311 288 248 228 258 199 189 221 311 222 213 218 194 192 187 187 188 186 186 184 182 184 180 179 184 186 192 196 191 195 208 213 212 210 211 211 216 224 223 220 217 219 223 228 232 223 212 200 201 210 214 218 218 216 219 220 206 188 196 211 210 214 209 195 185 173 179 190 198 207
350 347 346 346 348 351 349 348 347 350 354 359 4 0 356 350 329 303 347 291 251 248 275 260 217 240 287 271 208 197 168 176 184 189 189 186 183 182 185 186 185 186 193 192 185 191 194 199 210 212 213 209 211 215 219 228 235 233 225 224 224 226 229 216 212 214 210 215 215 217 225 226 220 220 226 211 198 209 216 212 210 200 183 177 187 195 199 208
350 347 347 346 346 350 350 349 350 352 4 18 13 10 18 4 340 322 331 307 275 259 264 265 251 249 257 255 228 201 199 195 194 196 192 186 186 188 187 186 190 192 199 199 186 190 199 213 216 211 215 214 212 216 220 226 233 237 235 231 228 227 229 216 207 208 204 211 224 219 223 228 225 219 224 218 199 204 216 213 210 208 192 181 188 196 196 205
348 345 346 345 344 348 351 350 353 359 11 23 14 16 19 357 337 320 319 301 288 277 261 259 256 249 248 247 240 225 221 213 200 197 191 185 188 192 187 188 197 195 195 200 190 190 204 221 219 210 213 217 216 215 219 226 228 234 237 238 236 224 227 228 213 206 203 209 228 227 228 230 230 228 226 222 212 208 209 213 214 211 204 187 184 188 189 197
346 344 344 345 343 346 350 349 358 7 7 8 9 11 1 339 331 319 304 287 288 283 261 247 243 239 239 238 230 220 221 217 202 195 188 184 190 195 191 191 202 198 194 202 199 194 206 218 216 212 210 213 219 216 215 223 226 231 231 230 237 227 222 229 218 209 204 205 229 234 234 233 233 234 232 229 232 225 206 207 219 215 211 198 181 180 186 195
347 345 342 343 342 344 350 352 3 10 355 338 351 357 348 333 330 325 305 280 277 279 260 240 232 229 230 226 218 213 218 221 210 195 186 186 190 195 199 197 201 205 199 203 208 209 214 213 206 211 211 209 217 217 213 218 220 227 230 228 231 231 229 231 227 221 208 206 227 238 240 235 231 233 231 225 230 232 210 200 215 221 216 203 180 177 188 198
349 347 344 345 343 343 352 1 1 0 351 339 341 339 338 332 328 327 312 280 261 268 257 231 220 225 224 215 208 207 214 222 217 200 187 190 191 190 201 202 201 211 205 204 212 217 222 214 198 205 210 208 215 217 211 215 220 222 226 230 235 237 237 238 239 235 219 215 221 225 240 239 227 229 230 224 223 227 214 198 207 218 214 205 191 183 188 196
351 348 347 348 345 343 353 3 346 350 350 342 340 335 333 331 326 324 306 277 267 239 201 189 195 205 206 201 194 194 211 221 216 207 191 192 195 192 197 201 203 215 208 205 214 222 224 218 205 203 207 207 213 218 212 213 223 225 218 222 230 240 243 242 242 238 228 231 223 217 231 241 232 231 229 228 229 229 218 196 199 211 209 205 203 193 186 190
351 347 345 349 349 343 344 345 340 347 345 332 336 334 328 326 325 326 290 264 271 187 149 157 175 176 186 189 178 178 209 207 202 209 198 190 196 199 204 201 200 213 208 204 214 216 218 217 209 201 206 209 210 217 213 209 220 229 218 215 220 231 239 241 243 243 239 243 240 230 231 238 237 232 228 226 230 231 215 189 197 208 207 206 207 201 192 191
349 346 343 347 350 342 338 341 339 337 331 329 331 326 324 324 320 316 275 268 268 138 133 136 150 160 173 176 180 191 215 164 184 204 198 192 195 199 211 210 202 208 208 210 215 208 210 215 210 198 204 213 210 214 209 204 217 228 225 225 220 221 229 234 238 244 244 244 244 236 234 241 240 232 232 231 232 228 205 192 206 208 204 208 212 205 196 194
346 344 342 343 349 350 341 343 337 319 323 327 325 323 321 314 303 286 248 263 268 128 130 140 143 164 170 169 190 207 219 195 195 193 187 192 198 200 215 215 210 211 211 219 225 212 207 212 215 207 204 214 214 212 206 205 216 224 225 229 225 222 226 228 232 236 240 242 240 233 231 241 246 232 229 231 234 226 205 202 210 207 203 206 216 214 199 193
345 342 341 342 349 351 337 333 322 310 322 327 324 326 317 297 275 244 228 246 265 90 110 149 153 170 180 179 196 211 216 216 217 181 181 188 197 204 217 216 219 223 214 222 227 228 219 206 214 220 210 213 217 209 206 212 216 214 221 223 217 224 228 230 232 230 238 240 236 233 234 241 247 233 224 226 228 224 213 203 198 202 204 200 208 215 203 192
342 340 339 340 343 346 333 316 313 317 322 328 330 323 303 274 248 241 229 247 286 20 96 158 153 165 187 198 201 202 211 216 196 176 184 185 190 202 211 209 219 225 217 220 220 227 228 208 206 219 210 207 217 213 205 210 211 208 214 209 199 210 214 223 223 219 234 237 229 229 232 240 245 233 227 229 225 222 219 205 193 197 204 200 203 211 205 194
342 339 336 336 340 347 330 310 319 325 323 326 326 314 289 254 234 234 241 272 287 11 12 351 360 310 222 227 223 201 203 211 197 185 189 188 187 197 203 200 198 204 212 214 207 213 224 219 206 205 204 202 211 214 199 200 204 204 207 201 198 201 197 209 211 210 230 235 229 226 223 233 244 238 233 237 230 223 221 213 201 199 206 203 199 204 205 199
343 338 337 343 346 336 313 314 324 323 322 323 313 297 276 255 241 241 255 262 342 13 341 330 336 320 289 262 249 216 201 203 201 197 195 195 195 197 204 207 200 203 212 205 203 205 211 219 211 199 196 199 207 212 193 192 197 198 203 198 197 200 195 204 209 214 229 228 224 224 221 230 242 236 227 232 235 229 223 217 207 207 212 205 192 197 208 204
344 342 343 352 351 323 311 321 322 317 319 316 301 281 254 250 258 264 260 272 3 358 328 327 327 305 281 260 253 231 207 203 201 200 196 196 202 201 202 208 207 209 216 206 206 206 204 212 209 201 191 190 202 215 205 192 192 198 203 201 203 212 208 206 209 215 225 226 215 214 221 232 237 235 226 226 228 228 227 221 210 211 216 203 185 189 205 211
347 345 340 339 338 328 324 322 318 316 316 303 289 271 253 254 258 257 271 341 355 342 330 323 309 286 273 256 247 234 221 210 200 200 204 201 205 206 200 205 207 207 213 211 204 205 212 216 204 201 199 190 196 209 210 199 193 194 200 206 209 214 220 223 222 222 226 231 215 205 217 234 236 241 236 230 224 219 219 221 212 208 212 204 188 183 195 212
349 348 337 324 329 334 330 324 319 315 307 293 278 260 253 265 265 257 349 8 343 330 329 314 284 267 264 248 239 227 220 227 205 197 206 209 209 211 205 201 205 207 211 212 206 205 213 219 204 197 198 199 196 199 207 208 196 185 198 210 209 210 225 237 230 229 231 236 226 206 212 220 227 230 215 216 229 217 209 215 214 205 204 206 197 183 186 207
360 344 323 306 330 337 333 324 321 309 295 282 270 271 271 278 287 299 355 358 332 323 322 307 285 293 277 241 224 208 199 218 217 203 205 208 207 213 213 204 201 208 214 217 220 218 213 221 208 195 193 197 194 196 206 212 209 194 196 204 204 211 226 239 235 226 221 230 231 219 216 211 211 225 208 203 215 218 209 208 211 208 203 205 205 192 186 198
355 325 306 312 331 334 332 323 318 304 290 279 266 272 278 282 302 323 339 342 329 316 308 292 290 309 297 271 272 244 204 201 208 209 208 202 194 212 224 210 193 204 217 219 225 229 222 227 207 192 190 188 187 195 206 210 214 219 207 195 198 209 211 214 230 228 219 224 226 226 229 220 211 218 214 201 202 212 209 202 207 209 204 205 207 198 188 193
344 316 328 17 342 331 331 323 314 300 288 290 278 275 296 311 328 335 332 331 322 309 299 289 288 298 293 291 307 304 266 235 233 229 218 206 190 55 13 248 177 133 223 222 227 229 223 232 210 183 180 180 181 196 204 199 205 220 221 201 202 216 210 203 215 228 228 227 222 223 225 226 224 219 212 196 190 202 204 196 207 211 198 198 203 195 188 192
331 312 5 14 346 335 333 319 308 300 291 307 304 306 325 330 336 334 329 325 317 307 296 292 295 294 292 305 309 297 287 290 289 268 234 193 109 75 37 4 310 359 309 236 226 225 217 225 222 174 169 182 190 198 205 196 192 205 215 205 199 206 212 211 212 216 228 232 228 228 225 218 211 208 205 189 176 192 202 194 202 215 199 191 196 193 186 191
321 308 350 356 344 339 333 319 318 320 309 336 328 323 329 326 327 327 326 327 319 304 293 289 289 287 288 303 308 303 289 270 281 282 252 117 57 51 30 3 326 300 287 234 212 219 218 221 225 184 170 197 204 196 204 204 195 196 206 207 200 198 204 211 209 205 218 234 237 243 246 205 104 111 189 192 177 182 198 198 191 204 208 195 191 192 186 188
328 323 334 342 341 339 332 321 347 335 313 355 340 326 332 325 321 325 328 331 321 305 295 286 283 286 284 279 278 288 292 275 274 282 269 37 45 24 12 351 322 297 265 227 208 214 233 254 232 206 187 206 208 196 202 209 203 198 204 210 205 200 204 209 207 199 205 223 232 245 252 155 94 105 141 155 184 184 186 200 190 189 203 200 191 191 188 187
337 325 327 340 341 337 333 325 344 336 336 353 334 323 333 325 324 336 336 336 330 321 313 296 297 306 301 294 284 276 287 291 273 265 277 6 53 35 3 344 332 310 257 228 209 203 213 255 237 221 199 201 205 196 197 208 208 201 204 210 209 207 207 210 212 203 200 209 211 219 232 183 117 119 117 97 207 199 172 183 197 189 191 192 189 190 186 182
330 318 323 346 342 333 336 344 344 341 343 341 331 330 337 328 334 344 339 342 344 335 325 311 317 326 316 311 302 283 280 285 270 262 280 314 39 46 0 341 342 335 330 349 286 222 212 220 220 223 207 193 194 193 190 202 210 206 203 205 209 211 208 209 215 214 212 209 201 202 221 196 124 125 151 183 203 190 158 166 181 182 179 180 182 182 166 157
330 326 331 344 340 331 343 351 339 333 337 336 330 332 330 325 345 353 338 336 344 339 331 323 327 327 319 316 308 287 271 265 271 285 304 298 301 54 12 333 340 353 1 346 326 310 260 217 209 216 211 191 190 197 191 193 202 208 206 202 205 211 209 206 208 216 216 206 203 211 205 138 121 143 180 184 165 148 144 158 158 154 159 159 154 150 137 138
331 331 337 341 336 329 337 340 333 329 336 335 327 326 323 320 336 348 338 334 347 340 326 328 337 326 321 327 318 295 274 264 263 274 292 297 304 16 19 324 335 359 342 327 313 300 271 227 219 225 225 209 191 251 221 198 199 204 206 202 202 208 211 208 207 213 213 203 209 222 205 136 134 147 157 151 148 149 150 145 133 138 149 130 101 107 131 153
330 330 340 339 331 329 332 332 334 334 328 322 318 323 323 318 322 336 337 331 339 337 317 307 356 332 324 334 323 303 295 283 268 267 278 294 312 320 300 293 338 354 326 316 307 293 271 232 223 228 234 242 312 340 314 225 205 205 207 205 203 205 209 211 213 208 202 206 207 205 217 197 146 150 171 171 159 148 135 138 134 133 139 128 111 120 153 156
331 325 331 329 315 317 322 322 325 319 308 306 311 316 312 312 320 335 337 320 329 354 344 307 352 342 325 327 320 311 314 306 300 324 339 337 321 306 252 210 22 359 326 315 328 315 272 234 226 226 232 240 244 304 316 259 216 218 218 210 204 204 206 209 214 210 203 217 215 185 202 222 177 152 167 161 145 140 151 173 145 126 138 138 129 147 163 155
327 316 320 321 309 305 305 305 305 300 298 302 304 303 300 309 322 330 330 314 320 33 24 319 335 344 325 317 313 311 319 318 326 352 352 340 321 309 286 176 72 5 338 326 338 329 279 237 245 232 227 234 231 240 275 258 235 249 239 217 206 205 206 208 212 213 208 216 221 187 190 212 212 176 163 154 156 186 209 234 276 138 168 157 135 155 175 168
323 320 317 314 308 304 301 299 296 292 296 293 282 304 314 312 318 323 322 314 315 5 3 323 329 333 321 314 305 295 305 313 316 326 325 321 318 319 334 5 2 349 336 329 349 332 276 248 308 264 236 233 227 221 239 251 249 247 236 224 215 209 206 205 208 212 211 212 214 201 187 201 214 216 207 176 163 293 275 256 259 257 249 254 206 230 226 204
309 310 309 305 306 308 304 301 297 290 291 291 294 318 319 309 311 315 311 309 311 312 314 313 317 316 306 297 289 286 296 299 296 298 301 300 301 303 313 330 328 325 322 329 345 323 286 294 302 253 238 234 224 213 219 236 246 239 232 230 227 218 210 206 204 207 210 210 211 211 208 201 194 211 237 253 256 266 270 266 266 275 286 291 275 265 265 255
306 302 302 300 296 299 299 297 294 288 292 322 319 304 302 303 308 310 305 301 301 288 251 268 295 303 293 288 291 298 300 290 285 288 289 287 286 285 284 290 294 295 300 314 320 312 305 312 256 217 223 232 221 214 215 225 234 235 229 222 221 221 220 214 206 208 214 216 215 214 213 203 168 196 233 237 226 236 248 262 269 273 279 280 278 276 272 262
Height
1523 1522 1520 1518 1517 1516 1514 1512 1511 1510 1509 1508 1506 1505 1503 1502 1501 1500 1499 1498 1498 1497 1496 1496 1496 1495 1494 1494 1494 1493 1492 1491 1491 1490 1487 1483 1485 1486 1487 1488 1489 1490 1492 1494 1496 1497 1497 1498 1499 1501 1501 1501 1500 1497 1496 1495 1495 1494 1492 1496 1497 1504 1511 1495 1479 1472 1470 1470 1468 1469 1470 1471 1476 1477 1480 1481 1482 1485 1487 1489 1492 1494 1495 1497 1500 1505 1511 1515
1523 1521 1519 1518 1516 1514 1513 1511 1510 1508 1507 1506 1504 1503 1502 1500 1500 1499 1498 1497 1496 1495 1495 1494 1494 1494 1493 1493 1493 1492 1491 1490 1489 1486 1482 1482 1484 1484 1485 1487 1487 1489 1490 1492 1494 1495 1496 1496 1498 1499 1499 1498 1497 1496 1493 1492 1494 1492 1491 1495 1495 1501 1502 1485 1473 1467 1467 1470 1466 1468 1471 1472 1476 1478 1480 1481 1481 1484 1487 1490 1492 1496 1498 1501 1504 1507 1511 1515
1522 1521 1519 1517 1516 1514 1512 1510 1508 1507 1505 1504 1503 1501 1500 1498 1498 1497 1496 1495 1493 1493 1493 1492 1492 1492 1492 1492 1492 1491 1490 1489 1486 1480 1477 1480 1482 1482 1484 1485 1486 1488 1488 1491 1493 1494 1495 1496 1497 1498 1498 1496 1494 1493 1491 1490 1491 1488 1490 1495 1493 1491 1483 1472 1468 1467 1468 1469 1465 1467 1471 1473 1476 1478 1479 1479 1481 1483 1486 1489 1491 1495 1500 1503 1506 1508 1511 1515
1522 1520 1519 1517 1515 1513 1511 1509 1507 1505 1504 1503 1501 1499 1497 1496 1495 1495 1494 1493 1492 1491 1490 1491 1491 1491 1491 1490 1491 1490 1490 1488 1481 1475 1475 1477 1478 1480 1482 1483 1485 1486 1487 1490 1493 1494 1495 1496 1497 1497 1496 1493 1490 1490 1487 1488 1487 1484 1486 1489 1490 1484 1475 1471 1469 1469 1471 1469 1467 1468 1471 1473 1475 1478 1479 1477 1483 1485 1483 1487 1490 1494 1499 1502 1506 1508 1511 1514
1522 1520 1518 1516 1515 1512 1510 1508 1506 1504 1503 1501 1499 1497 1495 1494 1493 1492 1492 1491 1490 1489 1488 1489 1489 1490 1489 1489 1490 1489 1492 1488 1475 1471 1473 1474 1475 1477 1479 1480 1483 1485 1487 1490 1492 1493 1494 1494 1495 1495 1494 1489 1487 1487 1485 1484 1484 1483 1481 1478 1480 1478 1475 1475 1471 1472 1474 1471 1469 1470 1471 1472 1473 1477 1478 1477 1484 1485 1479 1484 1489 1493 1498 1500 1504 1507 1510 1513
1521 1519 1518 1516 1514 1512 1509 1507 1505 1503 1501 1500 1498 1496 1494 1492 1491 1490 1489 1489 1488 1487 1486 1486 1487 1488 1488 1488 1488 1489 1491 1482 1471 1471 1473 1473 1474 1475 1477 1478 1480 1484 1486 1489 1490 1491 1492 1492 1493 1492 1490 1486 1483 1483 1482 1481 1482 1484 1480 1472 1474 1474 1475 1478 1474 1474 1475 1472 1471 1470 1471 1471 1473 1476 1477 1477 1481 1482 1479 1483 1488 1492 1497 1500 1504 1507 1509 1512
1520 1519 1517 1515 1513 1511 1508 1506 1504 1502 1500 1498 1496 1494 1492 1490 1489 1488 1487 1486 1485 1485 1484 1484 1485 1485 1486 1487 1486 1488 1486 1476 1471 1474 1473 1473 1474 1474 1476 1477 1478 1482 1485 1487 1488 1488 1489 1489 1490 1488 1487 1485 1481 1479 1479 1479 1479 1482 1479 1471 1472 1472 1475 1480 1478 1475 1475 1474 1472 1472 1472 1472 1474 1475 1476 1477 1478 1480 1483 1484 1488 1493 1498 1501 1503 1506 1508 1511
1520 1518 1516 1514 1511 1509 1507 1505 1502 1500 1498 1496 1494 1492 1490 1488 1487 1486 1485 1484 1483 1483 1482 1482 1483 1483 1484 1485 1485 1485 1480 1472 1472 1474 1473 1474 1474 1474 1476 1476 1477 1480 1483 1485 1485 1486 1487 1486 1487 1486 1484 1482 1478 1476 1477 1477 1476 1478 1478 1472 1470 1472 1474 1477 1477 1475 1474 1473 1472 1473 1472 1471 1473 1473 1473 1476 1477 1481 1484 1485 1489 1495 1499 1501 1503 1505 1508 1510
1519 1517 1514 1512 1510 1508 1506 1503 1501 1499 1497 1495 1493 1490 1488 1486 1485 1484 1483 1482 1481 1480 1480 1480 1481 1481 1481 1482 1484 1481 1473 1470 1473 1473 1472 1474 1473 1473 1475 1476 1477 1479 1482 1483 1484 1485 1484 1484 1484 1484 1482 1478 1476 1474 1474 1478 1478 1474 1474 1471 1469 1471 1472 1474 1474 1474 1474 1472 1472 1472 1471 1470 1470 1473 1474 1473 1476 1480 1483 1485 1488 1494 1498 1500 1503 1504 1506 1509
1518 1516 1514 1511 1509 1507 1504 1502 1500 1497 1495 1493 1491 1489 1486 1485 1483 1482 1481 1480 1479 1478 1478 1479 1478 1479 1479 1480 1482 1477 1469 1469 1472 1472 1472 1473 1472 1472 1473 1476 1476 1478 1480 1481 1482 1482 1482 1482 1483 1483 1482 1477 1474 1472 1471 1475 1475 1471 1472 1471 1469 1470 1470 1472 1472 1472 1472 1470 1470 1471 1470 1469 1468 1473 1474 1471 1474 1478 1481 1484 1487 1492 1496 1499 1502 1503 1505 1507
1518 1516 1513 1511 1508 1505 1503 1500 1498 1496 1493 1491 1489 1487 1485 1483 1481 1480 1479 1478 1477 1476 1476 1476 1476 1477 1477 1479 1478 1472 1467 1469 1470 1470 1471 1471 1472 1471 1472 1475 1475 1477 1479 1479 1480 1480 1481 1482 1482 1484 1481 1477 1474 1471 1469 1471 1472 1471 1472 1472 1470 1469 1469 1469 1469 1470 1470 1469 1469 1468 1468 1467 1467 1471 1470 1468 1472 1476 1479 1483 1487 1492 1495 1497 1499 1502 1504 1506
1518 1515 1513 1510 1508 1505 1502 1499 1496 1494 1491 1490 1488 1485 1483 1481 1480 1478 1477 1476 1475 1475 1474 1474 1475 1474 1476 1477 1471 1466 1467 1468 1468 1469 1469 1469 1470 1470 1471 1474 1474 1475 1477 1477 1478 1479 1480 1481 1482 1481 1478 1476 1475 1473 1471 1470 1472 1471 1472 1476 1473 1469 1469 1467 1466 1468 1468 1468 1466 1467 1474 1473 1469 1469 1467 1467 1471 1473 1477 1481 1487 1491 1495 1498 1498 1500 1502 1503
1517 1515 1512 1510 1507 1504 1501 1498 1495 1492 1490 1488 1485 1484 1482 1479 1478 1476 1475 1475 1474 1474 1473 1473 1472 1472 1475 1471 1463 1461 1464 1466 1467 1467 1467 1468 1469 1469 1470 1472 1473 1474 1476 1476 1477 1478 1479 1480 1480 1479 1476 1475 1473 1472 1471 1468 1470 1472 1471 1475 1478 1477 1473 1464 1462 1465 1465 1466 1463 1469 1485 1481 1467 1464 1465 1467 1469 1472 1475 1479 1486 1491 1494 1498 1499 1500 1499 1501
1517 1515 1512 1509 1506 1503 1500 1497 1494 1491 1489 1486 1484 1482 1480 1478 1477 1475 1474 1473 1472 1472 1472 1471 1470 1472 1472 1465 1459 1460 1460 1462 1465 1465 1466 1467 1467 1468 1469 1471 1472 1473 1475 1475 1476 1477 1478 1479 1479 1478 1476 1473 1469 1469 1471 1469 1469 1472 1473 1474 1478 1481 1474 1459 1457 1462 1464 1464 1461 1469 1486 1479 1462 1460 1464 1466 1467 1470 1473 1476 1484 1489 1493 1498 1499 1501 1499 1498
1517 1514 1512 1509 1506 1503 1499 1496 1493 1490 1487 1485 1483 1480 1478 1477 1475 1473 1473 1471 1471 1471 1470 1470 1469 1471 1470 1461 1457 1457 1457 1460 1461 1461 1464 1465 1465 1467 1467 1469 1471 1472 1474 1474 1474 1475 1476 1477 1477 1475 1473 1473 1472 1470 1471 1472 1468 1469 1478 1479 1474 1476 1471 1456 1451 1456 1462 1461 1458 1469 1482 1475 1461 1459 1462 1464 1466 1469 1471 1473 1480 1485 1490 1495 1497 1501 1502 1498
1516 1514 1511 1508 1506 1503 1499 1495 1492 1489 1486 1483 1481 1479 1477 1475 1473 1472 1471 1469 1470 1470 1470 1470 1469 1470 1468 1459 1454 1453 1455 1456 1457 1459 1462 1463 1464 1464 1466 1468 1469 1471 1472 1473 1473 1474 1475 1475 1474 1473 1471 1471 1472 1472 1473 1477 1473 1467 1474 1478 1471 1470 1469 1460 1450 1448 1454 1457 1457 1465 1476 1473 1465 1463 1463 1462 1464 1467 1468 1470 1475 1480 1485 1492 1495 1498 1502 1501
1516 1513 1510 1507 1505 1502 1498 1495 1491 1488 1485 1482 1480 1477 1475 1474 1472 1470 1469 1469 1469 1468 1469 1469 1470 1471 1463 1454 1451 1451 1451 1453 1454 1457 1459 1461 1463 1463 1465 1466 1467 1469 1470 1472 1473 1472 1472 1472 1472 1472 1470 1467 1467 1471 1479 1481 1476 1468 1469 1471 1466 1462 1463 1463 1456 1448 1449 1456 1460 1462 1467 1468 1461 1460 1460 1458 1462 1465 1465 1467 1470 1474 1481 1488 1491 1494 1500 1502
1515 1512 1509 1507 1504 1501 1498 1494 1491 1487 1484 1481 1478 1476 1474 1472 1470 1469 1467 1467 1467 1468 1469 1468 1471 1470 1456 1447 1449 1448 1447 1450 1452 1455 1457 1459 1461 1462 1463 1464 1465 1468 1469 1471 1471 1470 1470 1469 1469 1470 1468 1466 1464 1467 1476 1474 1468 1466 1466 1468 1466 1460 1457 1459 1457 1450 1448 1456 1461 1461 1465 1464 1457 1453 1453 1455 1460 1462 1462 1464 1466 1470 1477 1484 1488 1491 1495 1498
1514 1511 1508 1506 1503 1501 1497 1493 1490 1486 1483 1481 1478 1475 1473 1471 1469 1467 1468 1469 1468 1466 1463 1462 1464 1459 1447 1443 1446 1446 1446 1448 1450 1452 1455 1457 1459 1461 1462 1463 1464 1465 1466 1467 1467 1466 1466 1467 1468 1468 1465 1463 1460 1459 1465 1461 1456 1457 1457 1460 1463 1461 1456 1451 1450 1446 1445 1456 1461 1461 1463 1461 1457 1454 1451 1453 1456 1459 1461 1462 1464 1467 1472 1480 1485 1487 1490 1494
1513 1510 1507 1504 1502 1500 1497 1493 1490 1487 1484 1480 1477 1475 1474 1473 1469 1465 1467 1469 1466 1461 1455 1456 1457 1450 1444 1445 1445 1446 1446 1447 1448 1450 1452 1455 1458 1459 1460 1461 1462 1463 1461 1461 1463 1462 1463 1467 1464 1461 1458 1456 1455 1454 1455 1454 1451 1450 1451 1453 1455 1457 1454 1447 1448 1444 1441 1454 1460 1457 1460 1458 1456 1455 1450 1450 1453 1456 1459 1459 1461 1464 1468 1476 1480 1483 1486 1490
1513 1510 1507 1504 1501 1499 1496 1493 1490 1488 1485 1482 1481 1480 1480 1480 1476 1471 1469 1463 1459 1459 1453 1451 1453 1448 1444 1445 1444 1445 1445 1445 1447 1448 1449 1452 1455 1456 1456 1456 1457 1459 1457 1454 1457 1458 1461 1463 1455 1451 1451 1449 1450 1451 1452 1454 1452 1450 1450 1451 1451 1452 1449 1441 1443 1443 1439 1453 1460 1453 1458 1458 1453 1452 1448 1446 1450 1454 1455 1456 1458 1460 1464 1471 1476 1480 1483 1488
1512 1509 1506 1503 1500 1498 1496 1493 1491 1488 1486 1485 1485 1485 1484 1485 1483 1480 1476 1463 1450 1451 1450 1446 1446 1444 1441 1442 1443 1444 1444 1442 1443 1444 1446 1449 1452 1452 1450 1451 1453 1453 1452 1450 1453 1458 1460 1455 1447 1444 1445 1446 1447 1448 1452 1453 1453 1453 1450 1452 1452 1446 1445 1441 1436 1436 1438 1451 1460 1455 1458 1458 1450 1447 1445 1443 1445 1448 1451 1453 1455 1457 1460 1466 1472 1477 1480 1485
1512 1508 1506 1503 1499 1497 1495 1493 1491 1488 1487 1487 1488 1487 1486 1485 1483 1482 1480 1468 1448 1440 1442 1439 1437 1437 1436 1437 1439 1441 1440 1437 1437 1438 1441 1444 1445 1446 1446 1447 1448 1448 1449 1448 1448 1454 1455 1446 1440 1440 1441 1445 1448 1447 1450 1453 1452 1453 1450 1454 1454 1443 1446 1449 1438 1434 1437 1445 1454 1455 1457 1456 1449 1446 1443 1441 1442 1442 1445 1450 1452 1453 1456 1461 1467 1473 1477 1482
1511 1508 1506 1502 1499 1497 1494 1493 1491 1490 1489 1489 1489 1488 1486 1485 1483 1481 1477 1468 1448 1432 1429 1428 1428 1429 1428 1430 1434 1436 1436 1433 1432 1432 1435 1438 1439 1442 1442 1441 1445 1446 1444 1443 1442 1445 1443 1436 1433 1437 1439 1443 1449 1446 1448 1453 1454 1452 1449 1450 1451 1444 1444 1444 1437 1433 1435 1440 1446 1453 1462 1459 1451 1451 1446 1440 1440 1439 1439 1445 1450 1450 1452 1457 1463 1470 1475 1478
1511 1508 1505 1502 1499 1496 1494 1493 1491 1491 1490 1489 1489 1487 1486 1485 1482 1481 1477 1466 1445 1424 1418 1419 1420 1421 1421 1426 1430 1430 1432 1431 1428 1428 1430 1433 1434 1437 1438 1437 1440 1442 1440 1440 1441 1440 1436 1429 1429 1436 1438 1440 1446 1445 1445 1449 1453 1452 1447 1444 1445 1444 1441 1439 1438 1437 1444 1452 1445 1451 1472 1467 1449 1449 1447 1440 1439 1438 1435 1439 1445 1448 1449 1453 1458 1465 1470 1473
1510 1507 1504 1502 1499 1495 1494 1493 1491 1491 1489 1490 1490 1486 1486 1485 1481 1481 1477 1465 1439 1414 1410 1413 1412 1413 1415 1420 1423 1428 1432 1426 1423 1427 1427 1429 1431 1432 1434 1433 1433 1435 1434 1435 1438 1436 1430 1425 1425 1432 1436 1439 1443 1443 1440 1442 1450 1451 1442 1438 1442 1443 1442 1442 1441 1443 1452 1457 1444 1442 1465 1468 1452 1446 1442 1438 1439 1436 1432 1435 1440 1445 1447 1450 1454 1458 1463 1468
1509 1506 1503 1501 1499 1496 1494 1493 1492 1491 1490 1491 1488 1486 1486 1483 1481 1481 1475 1463 1430 1401 1403 1410 1408 1408 1410 1413 1418 1425 1426 1417 1418 1423 1421 1425 1428 1428 1430 1428 1428 1430 1425 1430 1437 1431 1424 1425 1425 1429 1434 1437 1440 1441 1435 1436 1448 1448 1434 1433 1440 1443 1445 1445 1444 1446 1445 1447 1444 1438 1446 1459 1457 1445 1434 1433 1437 1435 1432 1435 1439 1441 1444 1447 1450 1453 1456 1460
1509 1506 1503 1501 1499 1496 1494 1493 1492 1492 1492 1491 1487 1487 1485 1482 1483 1480 1477 1464 1420 1390 1399 1407 1407 1408 1409 1413 1415 1414 1410 1406 1412 1415 1416 1422 1423 1423 1425 1421 1423 1426 1420 1425 1433 1424 1418 1424 1424 1426 1434 1435 1433 1432 1429 1432 1443 1440 1429 1430 1435 1438 1443 1443 1445 1448 1443 1449 1456 1444 1439 1452 1454 1439 1430 1430 1435 1435 1433 1436 1438 1438 1441 1445 1448 1450 1451 1454
1509 1505 1502 1500 1498 1496 1494 1492 1492 1492 1492 1489 1487 1486 1482 1483 1484 1476 1477 1460 1409 1387 1400 1404 1406 1410 1409 1413 1414 1409 1406 1403 1403 1405 1411 1419 1418 1419 1421 1417 1418 1422 1418 1419 1424 1418 1413 1417 1417 1420 1429 1430 1425 1423 1423 1430 1437 1433 1429 1430 1431 1433 1438 1441 1445 1448 1449 1454 1459 1448 1441 1452 1453 1440 1435 1436 1436 1434 1431 1432 1434 1434 1439 1443 1447 1449 1449 1450
1507 1504 1502 1499 1497 1496 1494 1493 1494 1493 1490 1488 1486 1484 1482 1484 1481 1474 1474 1449 1403 1392 1402 1402 1405 1408 1408 1411 1410 1408 1405 1401 1399 1401 1407 1413 1416 1418 1418 1418 1417 1417 1418 1416 1417 1414 1407 1409 1412 1413 1418 1420 1418 1419 1420 1425 1428 1428 1430 1433 1437 1440 1441 1444 1443 1446 1456 1458 1452 1445 1439 1447 1452 1441 1433 1432 1429 1426 1426 1429 1430 1432 1436 1440 1446 1449 1447 1447
1507 1504 1501 1498 1496 1495 1494 1494 1494 1491 1489 1488 1485 1484 1483 1479 1475 1472 1458 1425 1401 1400 1401 1401 1403 1403 1405 1408 1406 1406 1404 1400 1398 1401 1406 1408 1413 1416 1415 1418 1418 1418 1421 1418 1416 1414 1407 1408 1410 1408 1409 1412 1417 1418 1417 1419 1421 1426 1433 1437 1447 1451 1450 1453 1450 1452 1463 1458 1446 1439 1436 1443 1450 1438 1426 1420 1415 1414 1418 1423 1426 1429 1431 1435 1442 1446 1443 1444
1506 1503 1500 1498 1496 1494 1494 1494 1492 1490 1488 1487 1485 1483 1481 1475 1470 1464 1442 1414 1410 1414 1407 1407 1407 1403 1404 1403 1400 1401 1402 1401 1398 1399 1402 1403 1407 1409 1408 1409 1411 1418 1422 1416 1415 1416 1411 1407 1404 1405 1406 1408 1418 1421 1419 1420 1421 1427 1432 1438 1452 1458 1461 1467 1462 1457 1459 1452 1439 1434 1436 1442 1437 1426 1420 1414 1410 1408 1408 1411 1416 1421 1424 1427 1434 1439 1439 1441
1505 1502 1499 1498 1496 1495 1495 1493 1491 1490 1488 1486 1486 1481 1478 1476 1466 1452 1434 1419 1422 1423 1416 1415 1414 1411 1410 1406 1400 1395 1396 1398 1396 1396 1397 1398 1402 1403 1402 1400 1399 1408 1413 1410 1414 1416 1415 1409 1401 1404 1406 1405 1412 1419 1422 1423 1423 1428 1431 1436 1449 1456 1466 1475 1465 1456 1454 1445 1434 1429 1433 1438 1429 1418 1412 1409 1407 1403 1401 1404 1408 1413 1415 1418 1425 1433 1436 1437
1504 1501 1498 1497 1496 1496 1495 1493 1491 1490 1488 1487 1484 1478 1475 1475 1461 1444 1432 1424 1425 1427 1423 1421 1419 1415 1411 1407 1401 1392 1392 1395 1392 1393 1395 1396 1400 1400 1399 1399 1395 1398 1403 1405 1408 1409 1416 1414 1400 1400 1403 1402 1407 1409 1411 1415 1420 1423 1421 1427 1439 1441 1450 1461 1455 1453 1451 1441 1432 1430 1432 1434 1428 1415 1402 1398 1400 1398 1399 1401 1403 1407 1408 1411 1418 1427 1433 1434
1503 1500 1499 1497 1498 1498 1495 1494 1491 1489 1489 1485 1481 1475 1472 1466 1453 1441 1435 1432 1434 1434 1430 1426 1421 1416 1408 1402 1396 1386 1385 1389 1386 1390 1392 1391 1393 1392 1391 1393 1391 1393 1399 1402 1400 1397 1406 1405 1389 1389 1393 1395 1404 1403 1399 1407 1419 1419 1414 1423 1432 1426 1427 1437 1435 1433 1434 1435 1431 1428 1427 1420 1413 1404 1394 1394 1395 1394 1398 1399 1399 1404 1405 1407 1413 1420 1428 1430
1501 1499 1499 1499 1499 1498 1495 1493 1490 1489 1488 1484 1479 1473 1464 1455 1444 1436 1439 1444 1445 1442 1438 1430 1418 1413 1408 1398 1392 1385 1382 1385 1384 1386 1389 1386 1386 1385 1384 1385 1385 1387 1390 1393 1392 1391 1400 1398 1382 1384 1390 1390 1397 1399 1395 1402 1412 1415 1417 1421 1417 1411 1415 1428 1431 1421 1424 1437 1429 1418 1421 1416 1410 1406 1396 1397 1399 1394 1396 1398 1397 1401 1404 1406 1409 1414 1422 1426
1500 1499 1499 1499 1497 1496 1494 1492 1490 1488 1486 1482 1479 1470 1457 1450 1442 1437 1443 1451 1452 1447 1446 1439 1421 1415 1410 1395 1387 1385 1384 1386 1384 1382 1385 1384 1383 1381 1378 1378 1378 1381 1381 1384 1385 1381 1388 1393 1379 1378 1391 1389 1388 1395 1395 1393 1398 1408 1417 1414 1408 1410 1414 1422 1433 1430 1433 1445 1430 1413 1417 1419 1422 1420 1402 1398 1404 1399 1395 1396 1396 1398 1401 1404 1405 1409 1417 1422
1500 1498 1498 1497 1496 1495 1493 1491 1489 1487 1484 1482 1480 1471 1459 1452 1448 1447 1450 1456 1456 1452 1451 1446 1430 1421 1415 1401 1390 1386 1385 1386 1383 1381 1382 1381 1380 1379 1376 1375 1375 1377 1376 1378 1382 1376 1379 1390 1379 1370 1385 1388 1385 1396 1402 1394 1390 1397 1402 1400 1406 1421 1424 1424 1434 1436 1438 1444 1434 1419 1415 1413 1415 1415 1401 1398 1403 1400 1395 1394 1395 1396 1397 1399 1401 1405 1411 1417
1501 1498 1495 1495 1496 1494 1491 1490 1488 1486 1484 1483 1480 1471 1463 1458 1456 1457 1458 1459 1459 1455 1452 1446 1435 1428 1422 1413 1405 1395 1390 1390 1385 1384 1382 1376 1378 1381 1381 1381 1380 1380 1377 1376 1381 1377 1376 1388 1383 1367 1374 1386 1388 1395 1402 1399 1393 1393 1394 1394 1400 1411 1416 1419 1424 1426 1429 1436 1434 1426 1420 1412 1402 1395 1393 1395 1395 1395 1396 1395 1394 1392 1391 1394 1398 1400 1406 1412
1504 1499 1494 1494 1495 1492 1490 1488 1486 1484 1482 1483 1479 1473 1469 1467 1464 1464 1464 1462 1461 1459 1456 1449 1442 1437 1428 1422 1419 1407 1400 1399 1395 1390 1381 1373 1379 1387 1388 1390 1388 1385 1383 1380 1382 1380 1376 1384 1384 1372 1373 1385 1390 1389 1389 1392 1394 1397 1400 1400 1401 1403 1405 1410 1413 1412 1418 1427 1428 1425 1421 1407 1386 1377 1381 1387 1387 1390 1391 1392 1394 1390 1387 1392 1395 1397 1403 1409
1505 1498 1493 1494 1494 1491 1489 1486 1484 1482 1480 1481 1479 1475 1473 1472 1469 1468 1468 1467 1465 1463 1460 1453 1448 1444 1436 1433 1432 1422 1411 1405 1399 1394 1382 1377 1387 1393 1394 1398 1395 1390 1388 1386 1384 1380 1377 1381 1382 1378 1380 1385 1382 1376 1376 1379 1383 1391 1397 1396 1397 1401 1405 1414 1418 1410 1409 1417 1418 1420 1420 1402 1379 1372 1377 1380 1382 1384 1384 1386 1390 1389 1387 1390 1393 1396 1401 1406
1504 1498 1495 1495 1494 1491 1488 1484 1482 1481 1478 1479 1479 1477 1476 1474 1472 1471 1471 1471 1470 1467 1463 1457 1450 1446 1440 1436 1433 1429 1422 1411 1404 1399 1386 1383 1394 1400 1400 1401 1397 1392 1390 1387 1383 1378 1377 1382 1380 1376 1378 1379 1373 1368 1371 1373 1373 1381 1389 1387 1388 1393 1398 1411 1420 1413 1409 1413 1409 1412 1419 1404 1380 1375 1378 1378 1378 1379 1381 1383 1384 1386 1387 1388 1390 1394 1397 1402
1505 1501 1497 1496 1494 1492 1489 1484 1481 1479 1477 1478 1479 1477 1476 1474 1472 1471 1471 1472 1471 1469 1467 1462 1456 1453 1448 1440 1433 1429 1428 1421 1411 1402 1393 1391 1399 1404 1404 1403 1399 1393 1389 1387 1383 1378 1381 1387 1386 1377 1371 1369 1366 1364 1366 1369 1370 1378 1383 1381 1382 1387 1388 1395 1401 1401 1406 1412 1409 1416 1425 1407 1382 1376 1378 1380 1380 1377 1379 1382 1383 1384 1386 1387 1389 1392 1395 1399
1505 1501 1497 1496 1495 1492 1489 1486 1483 1481 1479 1479 1478 1475 1474 1473 1471 1471 1471 1471 1470 1469 1468 1464 1463 1462 1457 1449 1441 1433 1432 1430 1416 1402 1400 1401 1403 1406 1407 1405 1401 1396 1393 1394 1390 1385 1386 1388 1388 1387 1383 1380 1378 1375 1374 1374 1372 1375 1378 1377 1379 1380 1382 1388 1390 1393 1404 1405 1403 1416 1423 1404 1384 1381 1382 1382 1381 1378 1378 1381 1383 1384 1385 1387 1390 1392 1394 1399
1505 1500 1496 1496 1495 1492 1490 1488 1486 1484 1482 1481 1479 1476 1474 1473 1472 1473 1472 1471 1471 1470 1469 1467 1466 1465 1461 1455 1449 1439 1433 1432 1421 1410 1409 1408 1404 1405 1408 1407 1404 1400 1398 1400 1397 1392 1389 1385 1385 1389 1389 1389 1389 1384 1378 1375 1373 1372 1372 1373 1377 1378 1381 1388 1393 1401 1408 1403 1398 1406 1410 1398 1388 1386 1385 1382 1382 1382 1380 1379 1381 1384 1386 1388 1390 1393 1397 1401
1506 1501 1497 1497 1495 1492 1491 1489 1488 1486 1484 1484 1482 1478 1476 1474 1472 1474 1473 1470 1470 1470 1469 1468 1468 1467 1463 1460 1456 1447 1436 1428 1423 1418 1416 1414 1409 1406 1408 1408 1405 1403 1402 1401 1398 1394 1391 1385 1382 1382 1378 1378 1384 1380 1368 1366 1372 1374 1372 1372 1375 1376 1378 1384 1393 1401 1403 1403 1403 1400 1396 1398 1396 1391 1390 1387 1385 1386 1384 1381 1381 1385 1388 1390 1393 1397 1400 1403
1508 1504 1501 1501 1498 1494 1492 1490 1489 1488 1486 1486 1484 1480 1481 1479 1473 1473 1473 1471 1471 1471 1468 1467 1469 1468 1466 1464 1461 1455 1444 1432 1425 1421 1419 1419 1416 1411 1409 1408 1407 1406 1404 1401 1397 1396 1396 1390 1383 1381 1376 1373 1379 1379 1369 1365 1369 1371 1371 1372 1373 1375 1377 1382 1390 1392 1392 1402 1409 1398 1392 1399 1398 1392 1393 1390 1386 1387 1387 1384 1384 1386 1389 1393 1397 1399 1401 1403
1511 1508 1506 1506 1503 1498 1495 1492 1491 1490 1488 1486 1483 1481 1484 1483 1476 1473 1474 1471 1471 1475 1474 1469 1468 1469 1468 1468 1466 1461 1453 1442 1435 1434 1433 1430 1426 1417 1409 1407 1407 1407 1405 1401 1398 1398 1400 1394 1385 1382 1379 1375 1377 1382 1377 1371 1368 1368 1369 1369 1369 1372 1376 1380 1384 1384 1386 1398 1402 1393 1394 1400 1395 1390 1391 1388 1386 1388 1387 1386 1386 1387 1391 1394 1397 1399 1399 1401
1513 1511 1508 1507 1504 1500 1497 1494 1492 1490 1486 1484 1483 1482 1483 1481 1477 1475 1475 1473 1471 1475 1478 1473 1469 1469 1468 1467 1467 1466 1463 1458 1453 1452 1448 1443 1437 1427 1415 1411 1410 1409 1407 1404 1402 1402 1402 1397 1387 1382 1381 1379 1380 1383 1381 1376 1373 1373 1370 1365 1364 1368 1371 1375 1380 1379 1382 1390 1389 1387 1395 1397 1389 1385 1385 1383 1384 1386 1386 1387 1388 1389 1391 1393 1396 1398 1397 1398
1516 1513 1510 1508 1504 1500 1497 1493 1491 1488 1484 1483 1483 1481 1480 1479 1477 1476 1475 1474 1473 1473 1475 1473 1469 1469 1467 1466 1467 1467 1466 1465 1464 1461 1455 1450 1445 1436 1430 1427 1423 1417 1412 1408 1405 1404 1403 1400 1393 1388 1389 1385 1381 1382 1383 1381 1380 1379 1373 1365 1363 1366 1368 1373 1377 1377 1381 1387 1385 1386 1397 1398 1387 1380 1380 1381 1384 1387 1389 1390 1391 1392 1393 1393 1396 1398 1397 1397
1517 1515 1513 1510 1504 1498 1496 1492 1490 1487 1482 1481 1481 1480 1480 1478 1477 1476 1474 1474 1474 1472 1473 1473 1470 1468 1466 1464 1464 1464 1462 1463 1463 1460 1456 1453 1448 1443 1440 1436 1432 1426 1417 1413 1412 1408 1405 1404 1398 1398 1403 1396 1384 1385 1386 1382 1382 1382 1378 1374 1371 1369 1368 1369 1371 1373 1378 1384 1386 1390 1397 1397 1387 1381 1382 1384 1387 1391 1392 1391 1392 1394 1395 1397 1398 1399 1398 1399
1516 1514 1513 1512 1505 1498 1495 1491 1488 1486 1481 1479 1480 1480 1479 1477 1475 1475 1475 1473 1472 1471 1472 1472 1469 1466 1464 1462 1461 1461 1461 1460 1459 1457 1455 1451 1446 1443 1440 1437 1434 1430 1423 1420 1419 1412 1410 1410 1401 1400 1407 1400 1385 1383 1385 1387 1394 1391 1381 1377 1376 1373 1371 1370 1370 1371 1373 1379 1387 1392 1393 1389 1384 1385 1389 1389 1390 1392 1392 1393 1394 1395 1396 1398 1400 1400 1400 1400